K2CAT Weather Reports


time (UTC)temp
C
wind
direction
speed
KPH
gust
KPH
rain 1hr
cm
rain 24hr
cm
rain mn
cm
humidity
%
barometer
mb
20260505130159 16 105 0.0 0.0 0.00 0.00 0.00 69 1009.5
20260505124649 15 251 0.0 0.0 0.00 0.00 0.00 69 1009.4
20260505124145 15 13 0.0 0.0 0.00 0.00 0.00 69 1009.3
20260505123641 15 315 0.0 0.0 0.00 0.00 0.00 69 1009.5
20260505123138 15 303 1.6 1.6 0.00 0.00 0.00 70 1009.3
20260505122634 14 218 0.0 1.6 0.00 0.00 0.00 72 1009.3
20260505122132 13 205 1.6 1.6 0.00 0.00 0.00 73 1009.2
20260505121628 13 293 1.6 1.6 0.00 0.00 0.00 75 1009.3
20260505121125 13 274 0.0 1.6 0.00 0.00 0.00 75 1009.5
20260505120622 13 239 0.0 0.0 0.00 0.00 0.00 74 1009.6
20260505120118 13 240 0.0 1.6 0.00 0.00 0.00 75 1009.5
20260505115618 13 315 3.2 4.8 0.00 0.00 0.00 74 1009.5
20260505115116 13 223 1.6 1.6 0.00 0.00 0.00 75 1009.5
20260505114612 13 262 1.6 1.6 0.00 0.00 0.00 73 1009.1
20260505114109 12 300 0.0 0.0 0.00 0.00 0.00 76 1009.5
20260505113605 12 315 0.0 0.0 0.00 0.00 0.00 79 1009.6
20260505113101 12 307 1.6 1.6 0.00 0.00 0.00 79 1009.6
20260505112558 11 286 1.6 1.6 0.00 0.00 0.00 80 1009.6
20260505112056 11 285 0.0 0.0 0.00 0.00 0.00 82 1009.6
20260505111550 11 314 1.6 1.6 0.00 0.00 0.00 82 1009.5
20260505111046 11 217 1.6 3.2 0.00 0.00 0.00 83 1009.8
20260505110543 11 326 1.6 3.2 0.00 0.00 0.00 82 1009.5
20260505102015 8 303 0.0 1.6 0.00 0.00 0.00 92 1009.0
20260505101514 8 282 0.0 0.0 0.00 0.00 0.00 92 1009.2
20260505101010 8 282 0.0 0.0 0.00 0.00 0.00 92 1009.0
20260505100507 7 281 0.0 0.0 0.00 0.00 0.00 92 1009.2
20260505100003 8 284 0.0 0.0 0.00 0.00 0.00 93 1009.0
20260505095500 8 284 0.0 0.0 0.00 0.00 0.00 93 1008.8
20260505094956 8 284 0.0 0.0 0.00 0.00 0.00 93 1008.8
20260505094453 8 284 0.0 1.6 0.00 0.00 0.00 92 1009.3
20260505093949 8 284 0.0 0.0 0.00 0.00 0.00 92 1009.0
20260505093446 8 283 0.0 0.0 0.00 0.00 0.00 92 1009.1
20260505092943 8 286 0.0 0.0 0.00 0.00 0.00 92 1009.1
20260505092441 8 286 0.0 0.0 0.00 0.00 0.00 92 1008.9
20260505091938 8 286 0.0 1.6 0.00 0.00 0.00 91 1008.6
20260505091435 8 286 0.0 0.0 0.00 0.00 0.00 91 1008.8
20260505090933 8 286 0.0 0.0 0.00 0.00 0.00 91 1008.7
20260505090431 8 286 0.0 0.0 0.00 0.00 0.00 91 1008.5
20260505085928 8 286 0.0 0.0 0.00 0.00 0.00 90 1008.4
20260505085426 8 286 0.0 0.0 0.00 0.00 0.00 90 1008.7
20260505084924 8 286 0.0 0.0 0.00 0.00 0.00 90 1008.5
20260505084422 8 286 0.0 0.0 0.00 0.00 0.00 90 1008.6
20260505083920 8 285 0.0 0.0 0.00 0.00 0.00 90 1008.7
20260505083417 8 285 0.0 0.0 0.00 0.00 0.00 89 1008.9
20260505082913 8 286 0.0 0.0 0.00 0.00 0.00 89 1008.9
20260505082409 8 286 1.6 1.6 0.00 0.00 0.00 89 1008.8
20260505081906 8 286 0.0 0.0 0.00 0.00 0.00 89 1008.7
20260505081403 8 286 0.0 0.0 0.00 0.00 0.00 89 1008.8
20260505080859 8 319 0.0 0.0 0.00 0.00 0.00 89 1008.5
20260505080355 8 319 0.0 0.0 0.00 0.00 0.00 89 1008.7
20260505075851 8 319 0.0 0.0 0.00 0.00 0.00 89 1008.8
20260505075348 8 319 0.0 0.0 0.00 0.00 0.00 89 1008.9
20260505074845 8 319 0.0 0.0 0.00 0.00 0.00 89 1008.9
20260505074342 8 319 0.0 0.0 0.00 0.00 0.00 89 1008.5
20260505073840 8 319 0.0 0.0 0.00 0.00 0.00 89 1008.5
20260505073338 8 319 0.0 0.0 0.00 0.00 0.00 89 1008.6
20260505072834 8 320 0.0 0.0 0.00 0.00 0.00 89 1008.9
20260505072330 8 320 0.0 0.0 0.00 0.00 0.00 89 1008.8
20260505071827 8 320 0.0 0.0 0.00 0.00 0.00 89 1008.8
20260505071323 8 320 0.0 0.0 0.00 0.00 0.00 89 1008.7
20260505070821 8 320 0.0 0.0 0.00 0.00 0.00 88 1008.7
20260505070318 8 320 0.0 0.0 0.00 0.00 0.00 88 1008.6
20260505065813 8 320 0.0 0.0 0.00 0.00 0.00 88 1008.7
20260505065310 8 320 0.0 0.0 0.00 0.00 0.00 88 1008.9
20260505064807 8 320 0.0 0.0 0.00 0.00 0.00 88 1008.8
20260505064304 8 320 0.0 0.0 0.00 0.00 0.00 88 1008.8
20260505063802 9 318 0.0 0.0 0.00 0.00 0.00 88 1008.8
20260505063258 9 318 0.0 0.0 0.00 0.00 0.00 88 1008.8
20260505062754 9 319 0.0 0.0 0.00 0.00 0.00 88 1008.9
20260505062252 9 319 0.0 0.0 0.00 0.00 0.00 88 1008.8
20260505061749 9 304 0.0 0.0 0.00 0.00 0.00 87 1009.0
20260505061247 9 303 0.0 0.0 0.00 0.00 0.00 87 1008.8
20260505060744 9 303 0.0 0.0 0.00 0.00 0.00 87 1008.9
20260505060241 10 303 0.0 0.0 0.00 0.00 0.00 86 1009.0
20260505055736 10 303 0.0 0.0 0.00 0.00 0.00 86 1008.8
20260505055233 10 303 0.0 0.0 0.00 0.00 0.00 86 1008.9
20260505054730 10 303 0.0 0.0 0.00 0.00 0.00 85 1008.9
20260505054228 10 302 0.0 0.0 0.00 0.00 0.00 85 1009.1
20260505053726 10 303 0.0 0.0 0.00 0.00 0.00 85 1009.1
20260505053222 10 302 0.0 0.0 0.00 0.00 0.00 84 1009.3
20260505052719 10 302 0.0 1.6 0.00 0.00 0.00 84 1009.0
20260505052216 10 297 0.0 0.0 0.00 0.00 0.00 83 1009.1
20260505051713 10 297 0.0 0.0 0.00 0.00 0.00 83 1009.4
20260505051211 10 296 0.0 0.0 0.00 0.00 0.00 83 1009.2
20260505050709 10 294 0.0 0.0 0.00 0.00 0.00 83 1009.2
20260505050207 10 298 0.0 0.0 0.00 0.00 0.00 83 1009.3
20260505041642 10 292 1.6 1.6 0.00 0.00 0.00 81 1009.1
20260505041140 11 290 0.0 0.0 0.00 0.00 0.00 80 1009.2
20260505040637 11 285 0.0 0.0 0.00 0.00 0.00 80 1009.2
20260505040134 11 285 0.0 0.0 0.00 0.00 0.00 79 1009.2
20260505035630 11 285 0.0 0.0 0.00 0.00 0.00 79 1009.3
20260505035126 11 286 0.0 0.0 0.00 0.00 0.00 78 1009.0
20260505034623 11 286 0.0 0.0 0.00 0.00 0.00 78 1009.1
20260505034120 11 284 0.0 1.6 0.00 0.00 0.00 77 1008.9
20260505033617 11 244 0.0 0.0 0.00 0.00 0.00 77 1009.0
20260505033115 12 241 0.0 0.0 0.00 0.00 0.00 76 1009.1
20260505032613 12 100 0.0 0.0 0.00 0.00 0.00 76 1009.1
20260505032109 12 243 0.0 0.0 0.00 0.00 0.00 75 1009.2
20260505031607 12 244 0.0 0.0 0.00 0.00 0.00 75 1009.0
20260505031103 12 336 0.0 0.0 0.00 0.00 0.00 75 1009.1
20260505030559 12 211 0.0 0.0 0.00 0.00 0.00 76 1008.9
20260505030055 12 219 0.0 0.0 0.00 0.00 0.00 75 1009.2
20260505025551 12 223 0.0 0.0 0.00 0.00 0.00 75 1009.3
20260505025050 12 318 0.0 0.0 0.00 0.00 0.00 73 1009.1
20260505024547 12 328 0.0 0.0 0.00 0.00 0.00 74 1009.1
20260505024044 12 329 0.0 0.0 0.00 0.00 0.00 73 1009.2
20260505023541 12 329 0.0 0.0 0.00 0.00 0.00 73 1009.1
20260505023039 12 330 1.6 1.6 0.00 0.00 0.00 72 1009.3
20260505022536 13 247 0.0 0.0 0.00 0.00 0.00 73 1009.1
20260505022033 13 235 1.6 1.6 0.00 0.00 0.00 73 1008.9
20260505021530 13 304 0.0 1.6 0.00 0.00 0.00 70 1009.1
20260505021027 13 306 0.0 0.0 0.00 0.00 0.00 70 1008.9
20260505020526 13 305 0.0 0.0 0.00 0.00 0.00 69 1009.0
20260505020024 13 261 0.0 0.0 0.00 0.00 0.00 69 1009.0
20260505015521 13 259 0.0 1.6 0.00 0.00 0.00 68 1008.9
20260505015018 13 261 0.0 1.6 0.00 0.00 0.00 67 1008.8
20260505014514 13 324 1.6 1.6 0.00 0.00 0.00 67 1009.0
20260505014012 13 223 0.0 0.0 0.00 0.00 0.00 67 1008.8
20260505013509 14 222 0.0 0.0 0.00 0.00 0.00 66 1008.7
20260505013006 14 222 0.0 0.0 0.00 0.00 0.00 65 1008.7
20260505012504 14 222 0.0 0.0 0.00 0.00 0.00 65 1008.6
20260505012001 15 222 0.0 0.0 0.00 0.00 0.00 64 1008.5
20260505011456 15 222 0.0 0.0 0.00 0.00 0.00 63 1008.4
20260505010954 15 222 0.0 1.6 0.00 0.00 0.00 62 1008.4
20260505010449 15 222 0.0 0.0 0.00 0.00 0.00 61 1008.1
20260505005945 15 157 0.0 0.0 0.00 0.00 0.00 60 1008.2
20260505005442 16 157 0.0 0.0 0.00 0.00 0.00 60 1008.2
20260505004940 16 157 0.0 0.0 0.00 0.00 0.00 57 1008.0
20260505004436 16 157 0.0 0.0 0.00 0.00 0.00 57 1008.1
20260505003933 16 156 0.0 0.0 0.00 0.00 0.00 56 1008.0
20260505003431 17 158 0.0 0.0 0.00 0.00 0.00 57 1007.9
20260505002927 17 157 0.0 1.6 0.00 0.00 0.00 54 1007.8
20260505002423 18 157 0.0 0.0 0.00 0.00 0.00 51 1007.6
20260505001922 18 209 0.0 0.0 0.00 0.00 0.00 47 1007.6
20260505001419 18 212 0.0 0.0 0.00 0.00 0.00 47 1007.4
20260505000916 19 237 0.0 0.0 0.00 0.00 0.00 44 1007.4
20260505000414 19 272 0.0 0.0 0.00 0.00 0.00 44 1007.4
20260504235910 20 273 1.6 1.6 0.00 0.00 0.00 44 1007.4
20260504235408 20 258 1.6 1.6 0.00 0.00 0.00 41 1007.2
20260504234903 20 280 1.6 1.6 0.00 0.00 0.00 42 1007.0
20260504234401 20 92 0.0 0.0 0.00 0.00 0.00 42 1006.9
20260504233857 20 297 0.0 0.0 0.00 0.00 0.00 41 1006.8
20260504233353 20 351 0.0 0.0 0.00 0.00 0.00 41 1006.9
20260504232850 20 297 0.0 0.0 0.00 0.00 0.00 40 1007.0
20260504232347 21 223 0.0 0.0 0.00 0.00 0.00 40 1006.6
20260504231844 21 276 0.0 0.0 0.00 0.00 0.00 41 1006.8
20260504231341 21 232 0.0 1.6 0.00 0.00 0.00 39 1006.7
20260504230837 21 316 4.8 9.7 0.00 0.00 0.00 39 1006.8
20260504230335 21 224 3.2 3.2 0.00 0.00 0.00 40 1006.7
20260504225833 21 346 1.6 3.2 0.00 0.00 0.00 37 1006.6
20260504225329 21 212 0.0 1.6 0.00 0.00 0.00 39 1006.4
20260504224827 21 205 1.6 3.2 0.00 0.00 0.00 37 1006.4
20260504224324 21 88 3.2 3.2 0.00 0.00 0.00 39 1006.3
20260504223820 22 254 3.2 6.4 0.00 0.00 0.00 37 1006.4
20260504223316 22 43 1.6 3.2 0.00 0.00 0.00 38 1006.4
20260504222813 22 241 0.0 1.6 0.00 0.00 0.00 38 1006.2
20260504222309 22 177 3.2 3.2 0.00 0.00 0.00 36 1006.4
20260504221808 22 221 3.2 4.8 0.00 0.00 0.00 36 1006.4
20260504221304 23 154 3.2 4.8 0.00 0.00 0.00 36 1006.3
20260504220801 22 200 3.2 3.2 0.00 0.00 0.00 35 1006.3
20260504220258 23 229 1.6 1.6 0.00 0.00 0.00 36 1006.4
20260504215755 22 242 1.6 1.6 0.00 0.00 0.00 34 1006.6
20260504215252 22 187 3.2 3.2 0.00 0.00 0.00 35 1006.5
20260504214747 22 10 1.6 3.2 0.00 0.00 0.00 35 1006.6
20260504214244 23 184 3.2 4.8 0.00 0.00 0.00 34 1006.7
20260504213741 23 218 3.2 6.4 0.00 0.00 0.00 33 1006.5
20260504213237 23 112 4.8 4.8 0.00 0.00 0.00 34 1006.8
20260504212735 22 218 3.2 3.2 0.00 0.00 0.00 34 1006.7
20260504212231 23 184 3.2 3.2 0.00 0.00 0.00 33 1006.8
20260504211729 23 290 0.0 1.6 0.00 0.00 0.00 32 1006.8
20260504211224 23 182 3.2 4.8 0.00 0.00 0.00 33 1006.9
20260504210722 23 208 1.6 3.2 0.00 0.00 0.00 32 1006.9
20260504210219 23 181 1.6 3.2 0.00 0.00 0.00 32 1007.0
20260504205716 23 194 6.4 9.7 0.00 0.00 0.00 32 1006.8
20260504205214 23 209 3.2 4.8 0.00 0.00 0.00 32 1006.9
20260504204712 23 173 3.2 3.2 0.00 0.00 0.00 33 1007.0
20260504204210 23 241 1.6 1.6 0.00 0.00 0.00 32 1007.3
20260504203709 22 218 3.2 3.2 0.00 0.00 0.00 33 1007.0
20260504203207 22 204 3.2 3.2 0.00 0.00 0.00 34 1006.9
20260504202706 22 202 3.2 4.8 0.00 0.00 0.00 33 1007.0
20260504202203 23 204 12.9 14.5 0.00 0.00 0.00 31 1007.2
20260504201700 23 218 6.4 9.7 0.00 0.00 0.00 31 1007.1
20260504201157 23 179 4.8 4.8 0.00 0.00 0.00 32 1007.2
20260504200655 24 219 8.0 9.7 0.00 0.00 0.00 31 1007.3
20260504200151 23 197 1.6 3.2 0.00 0.00 0.00 33 1007.2
20260504195647 23 71 3.2 3.2 0.00 0.00 0.00 36 1007.3
20260504195144 23 131 6.4 11.3 0.00 0.00 0.00 35 1007.3
20260504194641 22 272 3.2 4.8 0.00 0.00 0.00 33 1007.3
20260504194137 22 146 3.2 3.2 0.00 0.00 0.00 34 1007.5
20260504193633 22 214 6.4 12.9 0.00 0.00 0.00 34 1007.4
20260504193131 22 216 1.6 1.6 0.00 0.00 0.00 34 1007.4
20260504192629 22 202 1.6 1.6 0.00 0.00 0.00 34 1007.7
20260504192127 23 4 3.2 3.2 0.00 0.00 0.00 33 1007.8
20260504191625 22 86 3.2 3.2 0.00 0.00 0.00 34 1007.7
20260504191121 22 210 1.6 4.8 0.00 0.00 0.00 33 1007.6
20260504190617 22 202 3.2 4.8 0.00 0.00 0.00 35 1007.7
20260504190114 22 227 1.6 1.6 0.00 0.00 0.00 36 1007.8
20260504185610 22 223 3.2 4.8 0.00 0.00 0.00 35 1007.9
20260504185107 22 238 1.6 3.2 0.00 0.00 0.00 33 1007.8
20260504184603 21 39 3.2 4.8 0.00 0.00 0.00 37 1008.1
20260504184058 21 220 1.6 3.2 0.00 0.00 0.00 35 1008.0
20260504183555 21 297 6.4 6.4 0.00 0.00 0.00 34 1007.9
20260504183053 21 317 3.2 4.8 0.00 0.00 0.00 35 1007.9
20260504182550 21 213 1.6 1.6 0.00 0.00 0.00 35 1008.1
20260504182048 21 190 8.0 14.5 0.00 0.00 0.00 35 1008.1
20260504181544 22 215 6.4 6.4 0.00 0.00 0.00 32 1008.2
20260504181043 22 242 1.6 3.2 0.00 0.00 0.00 36 1008.3
20260504180541 22 266 1.6 1.6 0.00 0.00 0.00 36 1008.2
20260504180040 21 154 4.8 6.4 0.00 0.00 0.00 35 1008.5
20260504175537 21 25 3.2 4.8 0.00 0.00 0.00 37 1008.6
20260504175034 21 38 0.0 1.6 0.00 0.00 0.00 36 1008.4
20260504174531 21 19 3.2 4.8 0.00 0.00 0.00 36 1008.4
20260504174028 21 131 4.8 4.8 0.00 0.00 0.00 35 1008.8
20260504173525 22 337 3.2 3.2 0.00 0.00 0.00 36 1008.6
20260504173022 22 79 6.4 6.4 0.00 0.00 0.00 36 1008.6
20260504172518 21 5 1.6 3.2 0.00 0.00 0.00 35 1009.0
20260504172015 21 117 4.8 11.3 0.00 0.00 0.00 38 1008.9
20260504171512 21 189 9.7 16.1 0.00 0.00 0.00 34 1008.9
20260504171009 22 32 3.2 3.2 0.00 0.00 0.00 33 1009.1
20260504170504 21 322 3.2 3.2 0.00 0.00 0.00 33 1009.0
20260504160425 20 163 6.4 9.7 0.00 0.00 0.00 35 1009.7
20260504150848 18 222 1.6 3.2 0.00 0.00 0.00 40 1010.4
20260504150345 18 345 3.2 9.7 0.00 0.00 0.00 38 1010.7
20260504141315 16 212 3.2 4.8 0.00 0.00 0.00 46 1011.0
20260504140812 16 119 1.6 1.6 0.00 0.00 0.00 45 1011.3
20260504140308 15 325 0.0 0.0 0.00 0.00 0.00 45 1011.3